Location: Bratislava
(0.0000°N, 17.1167°E)
Time: 04:33:54
(UTC+01:00)

Cosmos 1076 Rocket - Pass Details

Date: 24 January 2021
Orbit: 588 x 613 km, 82.5° (Epoch: 06 March)

Event Time Altitude Azimuth Distance (km) Brightness Sun altitude
Rises 19:27:54 0° 172° (S) 2,876 7.1 -19.8°
Reaches altitude 10° 19:30:12 10° 165° (SSE) 1,970 6.2 -20.4°
Enters shadow 19:33:17 35° 130° (SE) 986 4.3 -21.1°
